Regional Weather Roundup
Issued by NWS State College, PA

Home | Current Version | Previous Version | Graphics & Text | Print | Product List | Glossary On
Versions: 1 2 3 4 5 6 7 8 9 10 11 12 13 14 15 16 17 18 19 20 21 22 23 24 25 26 27 28 29 30 31 32 33 34 35 36 37 38 39 40 41 42 43 44 45 46 47 48 49 50
000
ASUS41 KCTP 220403
RWRCTP

REGIONAL WEATHER ROUNDUP
NATIONAL WEATHER SERVICE STATE COLLEGE PA
1200 AM EDT TUE AUG 22 2017

Note: "fair" indicates few or no clouds below 12,000 feet with no
significant weather and/or obstructions to visibility.

* = STATION THAT DOES NOT REPORT PRECIPITATION /E.G. RAIN...SNOW...ETC/
    THUNDER OR FOG.

PAZ002>004-007>009-013>016-020>023-029>032-220500-
WESTERN PENNSYLVANIA

CITY           SKY/WX    TMP DP  RH WIND       PRES   REMARKS
ERIE           CLEAR     77  68  73 S10       30.01F
MEADVILLE      CLEAR     73  72  96 CALM      30.08F
FRANKLIN*      PTCLDY    72  66  83 S6        30.11F
NEW CASTLE     FAIR      75  72  90 S3        30.09F
BEAVER COUNTY  NOT AVBL
BUTLER*        CLEAR     74  70  87 S6        30.11F
PITTSBURGH INT PTCLDY    74  71  91 S5        30.10F
PITTSBURGH     CLEAR     74  68  81 S8        30.11F
INDIANA*       CLEAR     72  70  94 CALM      30.16F
LATROBE        CLEAR     70  70 100 SW3       30.13F
WASHINGTON CO* CLEAR     70  66  88 CALM      30.12F
$$

PAZ004>006-010>012-017>019-024>028-033>037-041-042-045-046-049>053-220500-
CENTRAL PENNSYLVANIA

CITY           SKY/WX    TMP DP  RH WIND       PRES   REMARKS
BRADFORD       CLOUDY    67  67 100 CALM      30.14F FOG
DUBOIS         PTCLDY    70  67  90 SW3       30.13F FOG
CLEARFIELD     CLEAR     71  70  96 CALM      30.14S
JOHNSTOWN      CLEAR     73  67  81 SW8       30.18F
ALTOONA        CLEAR     70  68  93 SW5       30.15F
STATE COLLEGE  MOCLDY    73  69  86 W3        30.12F
WILLIAMSPORT   FOG       70  70 100 CALM      30.09F VSB 1/2
SELINSGROVE    PTCLDY    69  69 100 CALM      30.10F FOG
FT INDIANTOWN  PTCLDY    69  69 100 CALM      30.12S
CAPITAL CITY   PTCLDY    75  69  81 SE6       30.11S
HARRISBURG     PTCLDY    73  71  93 S3        30.10F
YORK           CLEAR     73  71  93 CALM      30.12S
$$

PAZ038>040-043-044-047-048-054-055-060>062-067>071-220500-
EASTERN PENNSYLVANIA

CITY           SKY/WX    TMP DP  RH WIND       PRES   REMARKS
SCRANTON       PTCLDY    69  68  96 CALM      30.11F
MOUNT POCONO   PTCLDY    68  68 100 W5        30.17S
ALLENTOWN      CLEAR     73  69  87 CALM      30.11F
QUAKERTOWN*    PTCLDY    73  73 100 SW5       30.13S
READING        PTCLDY    73  69  87 CALM      30.10F
LANCASTER      PTCLDY    71  71 100 S5        30.12S
COATESVILLE    MOCLDY    73  70  88 CALM      30.15F
POTTSTOWN      CLOUDY    73  70  90 W5        30.13F
BLUE BELL      PTCLDY    73  73 100 SW7       30.12F
DOYLESTOWN     PTCLDY    75  72  90 SW5       30.11F
WILLOW GROVE   NOT AVBL
NORTH PHILA    CLOUDY    79  73  82 SW6       30.12F
PHILADELPHIA   CLOUDY    78  72  81 SW8       30.12S
$$



USA.gov is the U.S. government's official web portal to all federal, state and local government web resources and services.